{"data":{"norad_id":65512,"intl_designator":"2025-198W","name":"STARLINK-35149","alt_names":[],"object_type":"PAYLOAD","status":"ACTIVE","operator":null,"country":"US","launch_date":"2025-09-05","launch_site_code":"AFETR","launch_vehicle":null,"mission":null,"orbit_class":"UNKNOWN","rcs_meters":null,"size_class":null,"mass_kg":null,"dimensions":null,"purposes":["comms"],"wikipedia_slug":null,"has_3d_model":false,"image_url":null,"decayed_at":null,"tle_current":{"epoch":"2026-05-25T01:27:57.940992Z","epoch_age_seconds":63666,"freshness":"FRESH","line1":"1 65512U 25198W   26145.06108728  .00023075  00000+0  69191-3 0  9999","line2":"2 65512  53.1587 275.4932 0001039  75.1571 284.9546 15.34402485 40324","mean_motion":15.34402485,"eccentricity":0.0001039,"inclination_deg":53.1587,"raan_deg":275.4932,"arg_perigee_deg":75.1571,"mean_anomaly_deg":284.9546,"bstar":0.00069191,"rev_number":4032,"period_min":93.847606092739,"perigee_km":461.98509173982,"apogee_km":463.40661680694,"semimajor_km":6840.8328542734,"source":"CELESTRAK","updated_at":"2026-05-25T13:38:20.843978Z"}}}